COSMOS 926 DEB

Satellite information

Favourite Embed

Satellite Type and Status

DEBRISIN ORBIT

Key statistics

Satellite COSMOS 926 DEB at a glance.

Uptime

17586

Days in orbit

Revolutions

≈ 13.7

Per day

Orbit

LEO

Low Earth Orbit

Inclination

82.9

Latest

Satellite identification and parameters

Extended collection of information and parameters for COSMOS 926 DEB.

Object identification

Identified? True

Debris? True

Object name: COSMOS 926 DEB

International designator: 1977-062D

Object number (NORAD): 13491

Object ID (CCSDS): 13491

Country: COMMONWEALTH OF INDEPENDENT STATES (CIS)

Current information (Y/N): Y

RCS size: SMALL

Orbital parameters

Period: 104.762 minutes

Inclination: 82.9303 deg

SMA: 7361.425 km

Apoapsis: 997.454 km

Periapsis: 969.126 km

RAAN: 206.3653 deg

Eccentricy: 0.0019241

Argument of periapsis: 146.676 deg

Mean anomaly: 269.628 deg

Mean motion: 13.74548154 rev/day

Mean motion (dot): 0.00000262 rev/day2

B* drag term: 0.0002599668 1/REarth

Two-line elements (TLE)

Creation date: Aug. 30, 2025, 3:38 a.m.

Reference frame: TEME

Reference center: EARTH

Epoch: Aug. 29, 2025, 10:35 p.m. UTC

TLE line 0: 0 COSMOS 926 DEB

TLE line 1: 1 13491U 77062D 25241.94107457 .00000262 00000-0 25997-3 0 9996

TLE line 2: 2 13491 82.9303 206.3653 0019241 146.6760 269.6280 13.74548154212850

Live tracking on map

Real-time ground track for satellite COSMOS 926 DEB.

In-orbit conjunctions

A list of the most updated potential collisions computed for object COSMOS 926 DEB.

Target Orbit TCA Probability of collision Miss distance Type
COSMOS 1225 LEO 2024-10-06 14:51:58 0.0004640455 595.0 (m) PAYLOAD

Associated space launch

Civilian navigation satellite equivalent to the purely military Parus

COSMOS 926 DEB was lifted into orbit during the mission ‘Kosmos-3M | Tsikada 2’, on board a Kosmos-3M space rocket.

The launch took place on July 8, 1977, 5:30 p.m. from 132/1 (132L).

For more information about the launch, click the button.

Launch to space Kosmos-3M | Tsikada 2
Kosmos-3M | Tsikada 2

Agency: N/A

Status: Launch Successful

Launch date: July 8, 1977, 5:30 p.m. UTC

Rocket: Kosmos-3M

Launch pad: 132/1 (132L)

Location: Plesetsk Cosmodrome, Russian Federation

...

Latest news about this satellite

There are no fresh news available about this satellite. Check back as we update our databases every day.


Newsletter sign-up

Weekly statistics, charts and insights to help you stay on top of the space industry.